TimeGMT,TemperatureF,Dew PointF,Humidity,Sea Level PressureIn,VisibilityMPH,Wind Direction,Wind SpeedMPH,Gust SpeedMPH,PrecipitationIn,Events,Conditions,WindDirDegrees,DateUTC
2:50 AM,38,37,96,29.37,11,ESE,2.3,,,,Partly Cloudy,120,2012-11-03 02:50:00
5:20 AM,37.4,35.6,93,29.33,-9999.0,West,1.2,-,N/A,,Clear,270,2012-11-03 05:20:00
5:50 AM,38,36,90,29.35,12,South,2.3,,,,,170,2012-11-03 05:50:00
5:50 AM,39.2,37.4,93,29.33,6.2,SSE,2.3,-,N/A,,Partly Cloudy,160,2012-11-03 05:50:00
6:20 AM,37.4,35.6,93,29.33,6.2,South,2.3,-,N/A,,Mostly Cloudy,170,2012-11-03 06:20:00
6:50 AM,41.0,39.2,93,29.36,-9999.0,SW,5.8,-,N/A,,Clear,230,2012-11-03 06:50:00
7:20 AM,37.4,35.6,93,29.36,-9999.0,West,5.8,-,N/A,,Clear,270,2012-11-03 07:20:00
7:50 AM,41.0,37.4,87,29.39,-9999.0,West,6.9,-,N/A,,Clear,260,2012-11-03 07:50:00
8:20 AM,41.0,37.4,87,29.39,6.2,West,5.8,-,N/A,,Partly Cloudy,260,2012-11-03 08:20:00
8:50 AM,45,39,74,29.41,19,West,10.4,,,,,260,2012-11-03 08:50:00
8:50 AM,44.6,39.2,81,29.39,6.2,West,10.4,-,N/A,,Partly Cloudy,260,2012-11-03 08:50:00
9:20 AM,46.4,41.0,81,29.42,6.2,West,11.5,-,N/A,,Partly Cloudy,270,2012-11-03 09:20:00
9:50 AM,46.4,39.2,76,29.42,6.2,West,15.0,-,N/A,,Partly Cloudy,280,2012-11-03 09:50:00
10:20 AM,48.2,39.2,71,29.42,6.2,West,17.3,-,N/A,,Partly Cloudy,270,2012-11-03 10:20:00
10:50 AM,48.2,39.2,71,29.44,6.2,West,17.3,-,N/A,,Partly Cloudy,280,2012-11-03 10:50:00
11:20 AM,50.0,37.4,62,29.44,6.2,West,17.3,-,N/A,,Partly Cloudy,270,2012-11-03 11:20:00
11:50 AM,50,36,47,29.45,22,West,16.1,,,,Scattered Clouds,280,2012-11-03 11:50:00
11:50 AM,50.0,37.4,62,29.44,6.2,West,17.3,-,N/A,,Partly Cloudy,270,2012-11-03 11:50:00
12:20 PM,51.8,35.6,54,29.44,6.2,West,18.4,-,N/A,,Partly Cloudy,280,2012-11-03 12:20:00
12:50 PM,50.0,35.6,58,29.44,6.2,West,12.7,-,N/A,,Partly Cloudy,280,2012-11-03 12:50:00
1:20 PM,50.0,35.6,58,29.44,6.2,WSW,10.4,-,N/A,,Partly Cloudy,250,2012-11-03 13:20:00
1:50 PM,50.0,37.4,62,29.44,6.2,WSW,11.5,-,N/A,,Partly Cloudy,250,2012-11-03 13:50:00
2:20 PM,48.2,37.4,66,29.44,6.2,WSW,10.4,-,N/A,,Scattered Clouds,250,2012-11-03 14:20:00
2:50 PM,48,38,60,29.47,15,WSW,8.1,,,,Overcast,250,2012-11-03 14:50:00
2:50 PM,48.2,37.4,66,29.44,6.2,WSW,9.2,-,N/A,,Scattered Clouds,250,2012-11-03 14:50:00
3:20 PM,48.2,37.4,66,29.47,6.2,WSW,9.2,-,N/A,,Scattered Clouds,250,2012-11-03 15:20:00
3:50 PM,48.2,35.6,62,29.47,6.2,WSW,15.0,-,N/A,,Scattered Clouds,250,2012-11-03 15:50:00
4:20 PM,46.4,33.8,62,29.50,6.2,SSW,12.7,26.5,N/A,Rain,Light Rain Showers,210,2012-11-03 16:20:00
4:50 PM,42.8,35.6,76,29.47,6.2,South,11.5,-,N/A,Rain,Light Rain Showers,190,2012-11-03 16:50:00
5:20 PM,42.8,35.6,76,29.50,6.2,SSW,6.9,-,N/A,,Scattered Clouds,210,2012-11-03 17:20:00
5:50 PM,42,37,76,29.51,11,SSW,3.5,,,Rain,Rain,200,2012-11-03 17:50:00
5:50 PM,41.0,37.4,87,29.50,6.2,SW,3.5,-,N/A,,Scattered Clouds,220,2012-11-03 17:50:00
6:20 PM,41.0,35.6,81,29.50,6.2,SSW,5.8,-,N/A,,Scattered Clouds,210,2012-11-03 18:20:00
6:50 PM,41.0,37.4,87,29.50,6.2,SSW,4.6,-,N/A,,Scattered Clouds,200,2012-11-03 18:50:00
7:20 PM,41.0,35.6,81,29.50,6.2,SSW,4.6,-,N/A,,Partly Cloudy,200,2012-11-03 19:20:00
7:50 PM,42.8,37.4,81,29.50,6.2,SSW,5.8,-,N/A,,Partly Cloudy,210,2012-11-03 19:50:00
8:20 PM,39.2,35.6,87,29.50,5.0,WSW,4.6,-,N/A,,Partly Cloudy,240,2012-11-03 20:20:00
8:50 PM,40,36,82,29.52,4,SSW,2.3,,,,Light Haze,210,2012-11-03 20:50:00
8:50 PM,39.2,35.6,87,29.50,3.7,SW,1.2,-,N/A,,Unknown,230,2012-11-03 20:50:00
9:20 PM,35.6,33.8,93,29.50,2.8,South,1.2,-,N/A,,Mist,170,2012-11-03 21:20:00
9:50 PM,35.6,33.8,93,29.50,2.2,SE,1.2,-,N/A,,Mist,140,2012-11-03 21:50:00
10:20 PM,33.8,32.0,93,29.50,1.2,ENE,2.3,-,N/A,,Mist,70,2012-11-03 22:20:00
11:50 PM,34,33,96,29.51,2,East,1.2,,,,Mist,80,2012-11-03 23:50:00